Precipitable_Water
0.45 0.48 0.52 0.56 0.58 0.57 0.53 0.51 0.50 0.49 0.50 0.49 0.47 0.44 0.42 0.40 0.38 0.34 0.31 0.29 0.28 0.26 0.26 0.25 0.24 0.25 0.25 0.25 0.24 0.22 0.19 0.13 0.12 0.11 0.11 0.14 0.20 0.25 0.24 0.27 0.27 0.29 0.28 0.23 0.19 0.18 0.15 0.16 0.16 0.19 0.17 0.17 0.17 0.15 0.19 0.17 0.18 0.15 0.10 0.09 0.07 0.09 0.08 0.10 0.09 0.10 0.10 0.08 0.10 0.12 0.13 0.12 0.10 0.12 0.15 0.16 0.15 0.15 0.16 0.15 0.16 0.16 0.15 0.15 0.15 0.16 0.18 0.19
0.47 0.51 0.55 0.59 0.60 0.57 0.55 0.53 0.52 0.52 0.52 0.52 0.49 0.45 0.43 0.42 0.39 0.36 0.33 0.30 0.28 0.27 0.25 0.25 0.24 0.24 0.25 0.26 0.24 0.22 0.18 0.13 0.11 0.11 0.12 0.18 0.20 0.22 0.24 0.25 0.27 0.27 0.28 0.19 0.18 0.17 0.15 0.15 0.15 0.16 0.15 0.13 0.18 0.14 0.18 0.15 0.18 0.12 0.11 0.10 0.07 0.09 0.10 0.13 0.12 0.11 0.09 0.09 0.10 0.12 0.14 0.12 0.11 0.12 0.14 0.12 0.12 0.14 0.13 0.14 0.15 0.14 0.15 0.16 0.16 0.17 0.18 0.19
0.50 0.52 0.55 0.57 0.59 0.59 0.58 0.56 0.54 0.54 0.53 0.53 0.53 0.48 0.46 0.43 0.40 0.37 0.35 0.32 0.28 0.27 0.26 0.25 0.25 0.24 0.23 0.24 0.26 0.22 0.18 0.12 0.10 0.10 0.14 0.19 0.20 0.20 0.22 0.25 0.26 0.26 0.23 0.19 0.19 0.19 0.16 0.16 0.16 0.14 0.13 0.11 0.14 0.11 0.14 0.12 0.15 0.14 0.11 0.08 0.09 0.12 0.11 0.13 0.12 0.11 0.11 0.11 0.10 0.12 0.13 0.13 0.14 0.14 0.15 0.11 0.11 0.13 0.12 0.11 0.13 0.12 0.12 0.14 0.15 0.17 0.18 0.18
0.51 0.51 0.52 0.55 0.59 0.60 0.59 0.58 0.57 0.56 0.55 0.53 0.51 0.50 0.48 0.47 0.43 0.38 0.36 0.34 0.29 0.27 0.26 0.27 0.25 0.23 0.22 0.22 0.24 0.21 0.17 0.12 0.09 0.12 0.17 0.21 0.21 0.21 0.23 0.23 0.25 0.26 0.25 0.22 0.21 0.19 0.20 0.19 0.17 0.15 0.12 0.11 0.12 0.13 0.10 0.12 0.09 0.11 0.09 0.07 0.09 0.11 0.10 0.11 0.12 0.12 0.12 0.13 0.11 0.12 0.13 0.12 0.14 0.15 0.14 0.12 0.11 0.11 0.11 0.13 0.12 0.12 0.12 0.14 0.15 0.16 0.18 0.18
0.51 0.50 0.52 0.55 0.59 0.60 0.60 0.61 0.58 0.54 0.52 0.51 0.49 0.48 0.47 0.44 0.44 0.42 0.36 0.35 0.29 0.26 0.26 0.27 0.26 0.23 0.22 0.20 0.23 0.20 0.16 0.08 0.09 0.15 0.19 0.21 0.21 0.22 0.22 0.22 0.25 0.24 0.23 0.21 0.21 0.21 0.19 0.18 0.15 0.13 0.12 0.10 0.11 0.11 0.11 0.12 0.12 0.10 0.09 0.11 0.11 0.11 0.09 0.11 0.12 0.13 0.13 0.14 0.13 0.13 0.11 0.11 0.16 0.15 0.14 0.14 0.10 0.09 0.11 0.13 0.14 0.14 0.15 0.15 0.15 0.17 0.18 0.18
0.52 0.48 0.50 0.53 0.57 0.61 0.62 0.60 0.58 0.55 0.52 0.51 0.47 0.47 0.49 0.47 0.44 0.48 0.37 0.32 0.28 0.26 0.25 0.25 0.25 0.23 0.23 0.22 0.18 0.18 0.14 0.08 0.12 0.15 0.21 0.21 0.21 0.22 0.21 0.20 0.24 0.22 0.22 0.20 0.19 0.19 0.18 0.17 0.15 0.12 0.10 0.10 0.10 0.08 0.11 0.12 0.13 0.08 0.11 0.11 0.11 0.11 0.09 0.11 0.12 0.13 0.14 0.13 0.12 0.12 0.13 0.15 0.14 0.13 0.15 0.14 0.13 0.12 0.16 0.16 0.15 0.15 0.16 0.17 0.17 0.17 0.17 0.18
0.55 0.51 0.50 0.51 0.53 0.58 0.59 0.59 0.58 0.57 0.54 0.53 0.52 0.52 0.50 0.49 0.47 0.50 0.39 0.29 0.26 0.24 0.24 0.24 0.24 0.24 0.23 0.23 0.17 0.14 0.11 0.10 0.15 0.18 0.20 0.21 0.22 0.21 0.21 0.19 0.20 0.19 0.20 0.18 0.18 0.17 0.17 0.15 0.14 0.11 0.10 0.10 0.11 0.10 0.11 0.11 0.12 0.10 0.09 0.11 0.11 0.11 0.10 0.12 0.12 0.14 0.14 0.13 0.12 0.15 0.16 0.13 0.14 0.11 0.16 0.14 0.15 0.16 0.17 0.18 0.17 0.17 0.18 0.18 0.17 0.17 0.18 0.19
0.59 0.56 0.54 0.53 0.53 0.54 0.57 0.59 0.60 0.57 0.54 0.53 0.54 0.55 0.52 0.49 0.47 0.49 0.37 0.27 0.25 0.25 0.24 0.23 0.23 0.23 0.23 0.20 0.14 0.10 0.10 0.10 0.16 0.19 0.20 0.21 0.21 0.20 0.20 0.19 0.19 0.19 0.17 0.17 0.17 0.16 0.16 0.14 0.12 0.13 0.11 0.09 0.10 0.10 0.12 0.11 0.11 0.09 0.09 0.11 0.11 0.12 0.12 0.13 0.13 0.13 0.14 0.14 0.15 0.16 0.14 0.13 0.15 0.14 0.15 0.13 0.15 0.17 0.18 0.19 0.19 0.19 0.18 0.18 0.17 0.17 0.18 0.19
0.59 0.59 0.57 0.56 0.55 0.54 0.54 0.58 0.58 0.57 0.54 0.52 0.54 0.56 0.54 0.49 0.46 0.44 0.32 0.27 0.25 0.24 0.24 0.24 0.22 0.21 0.22 0.18 0.12 0.10 0.09 0.15 0.19 0.20 0.20 0.20 0.20 0.20 0.20 0.17 0.19 0.18 0.17 0.18 0.19 0.18 0.16 0.14 0.14 0.14 0.09 0.10 0.13 0.11 0.12 0.10 0.09 0.11 0.11 0.11 0.11 0.12 0.13 0.14 0.14 0.14 0.14 0.15 0.16 0.14 0.14 0.15 0.16 0.18 0.14 0.14 0.15 0.17 0.19 0.18 0.18 0.18 0.18 0.17 0.17 0.17 0.18 0.20
0.59 0.60 0.58 0.56 0.55 0.52 0.52 0.56 0.59 0.59 0.55 0.53 0.54 0.52 0.51 0.46 0.40 0.35 0.29 0.27 0.26 0.25 0.24 0.22 0.22 0.19 0.17 0.14 0.12 0.09 0.13 0.19 0.20 0.20 0.21 0.20 0.20 0.19 0.19 0.19 0.19 0.18 0.17 0.18 0.18 0.17 0.15 0.15 0.14 0.15 0.14 0.13 0.14 0.11 0.14 0.11 0.09 0.13 0.12 0.12 0.12 0.12 0.13 0.14 0.13 0.14 0.15 0.15 0.16 0.14 0.14 0.14 0.17 0.16 0.11 0.15 0.16 0.18 0.17 0.17 0.18 0.17 0.17 0.17 0.17 0.18 0.19 0.20
0.58 0.60 0.60 0.57 0.54 0.52 0.54 0.57 0.60 0.57 0.54 0.51 0.50 0.52 0.46 0.39 0.33 0.30 0.28 0.27 0.27 0.25 0.23 0.22 0.19 0.17 0.13 0.13 0.10 0.09 0.18 0.19 0.21 0.21 0.21 0.21 0.19 0.18 0.19 0.20 0.20 0.18 0.18 0.17 0.17 0.18 0.17 0.16 0.17 0.16 0.14 0.12 0.13 0.12 0.12 0.12 0.14 0.13 0.13 0.12 0.12 0.13 0.14 0.14 0.14 0.14 0.15 0.14 0.17 0.16 0.14 0.15 0.16 0.16 0.13 0.14 0.17 0.18 0.17 0.17 0.16 0.16 0.17 0.17 0.18 0.18 0.19 0.21
0.58 0.57 0.58 0.56 0.54 0.53 0.53 0.54 0.51 0.51 0.50 0.49 0.51 0.47 0.41 0.35 0.31 0.27 0.27 0.27 0.27 0.25 0.22 0.21 0.20 0.17 0.15 0.13 0.11 0.12 0.20 0.19 0.21 0.22 0.21 0.20 0.19 0.19 0.21 0.22 0.22 0.20 0.18 0.16 0.17 0.19 0.19 0.18 0.18 0.14 0.11 0.17 0.11 0.13 0.12 0.16 0.13 0.13 0.13 0.10 0.12 0.13 0.12 0.14 0.13 0.14 0.15 0.14 0.17 0.17 0.14 0.12 0.14 0.13 0.15 0.16 0.17 0.17 0.17 0.16 0.16 0.16 0.17 0.17 0.18 0.18 0.19 0.21
0.58 0.56 0.58 0.56 0.53 0.51 0.50 0.48 0.48 0.50 0.52 0.54 0.54 0.42 0.36 0.33 0.28 0.26 0.26 0.26 0.27 0.24 0.22 0.21 0.19 0.19 0.14 0.10 0.13 0.18 0.20 0.21 0.21 0.22 0.22 0.22 0.21 0.21 0.21 0.22 0.22 0.22 0.20 0.18 0.17 0.20 0.20 0.19 0.17 0.14 0.17 0.14 0.14 0.11 0.14 0.17 0.14 0.14 0.14 0.12 0.11 0.11 0.11 0.14 0.15 0.16 0.15 0.15 0.17 0.17 0.09 0.10 0.13 0.15 0.16 0.17 0.17 0.17 0.16 0.16 0.16 0.17 0.17 0.18 0.18 0.19 0.19 0.21
0.57 0.56 0.57 0.57 0.54 0.51 0.49 0.48 0.49 0.56 0.54 0.55 0.53 0.44 0.33 0.30 0.27 0.26 0.26 0.28 0.27 0.24 0.21 0.21 0.18 0.16 0.13 0.12 0.16 0.19 0.21 0.22 0.21 0.21 0.21 0.23 0.19 0.19 0.21 0.21 0.22 0.22 0.23 0.20 0.20 0.21 0.20 0.21 0.18 0.17 0.20 0.15 0.13 0.20 0.14 0.14 0.15 0.11 0.13 0.14 0.10 0.10 0.10 0.14 0.15 0.16 0.14 0.18 0.18 0.18 0.10 0.10 0.13 0.15 0.16 0.17 0.18 0.17 0.16 0.16 0.17 0.17 0.18 0.18 0.19 0.19 0.20 0.21
0.54 0.55 0.55 0.56 0.54 0.52 0.50 0.47 0.51 0.57 0.57 0.56 0.52 0.44 0.34 0.28 0.26 0.25 0.27 0.27 0.27 0.25 0.23 0.24 0.19 0.16 0.12 0.13 0.19 0.21 0.24 0.23 0.19 0.20 0.23 0.21 0.20 0.19 0.19 0.20 0.20 0.21 0.22 0.22 0.20 0.21 0.21 0.20 0.18 0.15 0.14 0.19 0.18 0.14 0.12 0.13 0.13 0.13 0.10 0.09 0.11 0.10 0.11 0.14 0.17 0.16 0.14 0.17 0.19 0.16 0.11 0.11 0.13 0.16 0.18 0.18 0.18 0.17 0.16 0.17 0.17 0.18 0.18 0.19 0.19 0.19 0.20 0.21
0.51 0.53 0.53 0.53 0.54 0.53 0.53 0.50 0.53 0.56 0.57 0.56 0.51 0.43 0.33 0.28 0.27 0.25 0.25 0.25 0.28 0.27 0.24 0.17 0.16 0.14 0.12 0.11 0.15 0.22 0.20 0.16 0.17 0.22 0.24 0.24 0.22 0.20 0.22 0.20 0.20 0.20 0.21 0.20 0.22 0.21 0.21 0.19 0.16 0.16 0.16 0.17 0.15 0.13 0.12 0.12 0.11 0.13 0.11 0.10 0.10 0.11 0.12 0.13 0.17 0.18 0.18 0.17 0.18 0.16 0.12 0.13 0.14 0.17 0.19 0.19 0.18 0.18 0.17 0.18 0.18 0.18 0.19 0.19 0.19 0.19 0.20 0.21
0.50 0.52 0.52 0.53 0.54 0.54 0.54 0.55 0.57 0.59 0.60 0.58 0.52 0.38 0.30 0.29 0.27 0.26 0.25 0.25 0.24 0.23 0.19 0.15 0.18 0.17 0.11 0.16 0.20 0.16 0.16 0.19 0.22 0.22 0.23 0.25 0.24 0.23 0.23 0.20 0.19 0.19 0.20 0.19 0.20 0.20 0.19 0.17 0.18 0.16 0.18 0.15 0.15 0.13 0.11 0.10 0.10 0.11 0.13 0.11 0.12 0.11 0.12 0.11 0.16 0.18 0.18 0.18 0.15 0.17 0.14 0.14 0.15 0.18 0.19 0.19 0.19 0.18 0.18 0.18 0.19 0.19 0.19 0.19 0.20 0.19 0.19 0.20
0.48 0.49 0.50 0.51 0.51 0.55 0.56 0.56 0.59 0.61 0.63 0.59 0.49 0.34 0.27 0.26 0.25 0.27 0.24 0.24 0.25 0.22 0.20 0.21 0.18 0.15 0.11 0.17 0.13 0.14 0.19 0.20 0.20 0.22 0.23 0.25 0.26 0.24 0.22 0.20 0.20 0.19 0.18 0.16 0.18 0.15 0.18 0.14 0.17 0.12 0.14 0.14 0.14 0.12 0.10 0.08 0.10 0.10 0.11 0.11 0.11 0.13 0.13 0.12 0.12 0.16 0.17 0.18 0.15 0.16 0.15 0.15 0.16 0.18 0.19 0.19 0.19 0.19 0.18 0.19 0.19 0.19 0.19 0.19 0.19 0.19 0.19 0.20
0.48 0.46 0.47 0.50 0.51 0.53 0.60 0.62 0.64 0.67 0.66 0.57 0.48 0.39 0.34 0.31 0.24 0.22 0.20 0.21 0.17 0.14 0.11 0.12 0.12 0.10 0.10 0.13 0.18 0.19 0.19 0.22 0.24 0.23 0.20 0.22 0.25 0.25 0.22 0.22 0.20 0.17 0.15 0.13 0.14 0.15 0.16 0.13 0.14 0.11 0.10 0.11 0.12 0.12 0.11 0.12 0.12 0.12 0.12 0.12 0.12 0.11 0.12 0.12 0.15 0.18 0.17 0.15 0.15 0.15 0.14 0.14 0.15 0.17 0.18 0.18 0.19 0.18 0.18 0.19 0.19 0.20 0.20 0.19 0.19 0.19 0.19 0.21
0.48 0.45 0.43 0.48 0.51 0.53 0.57 0.68 0.71 0.69 0.62 0.52 0.39 0.31 0.24 0.18 0.16 0.15 0.19 0.19 0.15 0.15 0.15 0.16 0.17 0.17 0.17 0.17 0.17 0.21 0.23 0.23 0.19 0.21 0.23 0.25 0.23 0.21 0.20 0.19 0.17 0.17 0.14 0.11 0.13 0.14 0.16 0.10 0.09 0.09 0.10 0.12 0.13 0.13 0.13 0.14 0.14 0.14 0.13 0.13 0.12 0.12 0.13 0.15 0.15 0.17 0.19 0.15 0.14 0.15 0.15 0.15 0.15 0.16 0.17 0.18 0.18 0.18 0.18 0.18 0.19 0.19 0.19 0.19 0.19 0.19 0.20 0.21
0.45 0.46 0.43 0.44 0.48 0.52 0.54 0.63 0.68 0.65 0.62 0.48 0.39 0.28 0.19 0.17 0.12 0.12 0.16 0.18 0.20 0.19 0.17 0.17 0.18 0.17 0.15 0.18 0.20 0.19 0.16 0.17 0.20 0.19 0.21 0.26 0.23 0.19 0.17 0.16 0.14 0.12 0.13 0.14 0.12 0.16 0.15 0.10 0.10 0.11 0.12 0.13 0.14 0.15 0.15 0.14 0.14 0.13 0.13 0.12 0.12 0.13 0.11 0.14 0.15 0.17 0.19 0.15 0.14 0.16 0.15 0.14 0.15 0.16 0.17 0.18 0.18 0.17 0.18 0.19 0.19 0.19 0.19 0.19 0.19 0.20 0.20 0.21
0.46 0.46 0.44 0.42 0.47 0.51 0.55 0.57 0.59 0.57 0.58 0.51 0.39 0.27 0.25 0.24 0.23 0.22 0.20 0.14 0.17 0.20 0.19 0.19 0.21 0.18 0.21 0.20 0.22 0.21 0.19 0.15 0.16 0.19 0.23 0.24 0.20 0.15 0.15 0.14 0.12 0.11 0.14 0.14 0.13 0.12 0.10 0.09 0.11 0.13 0.15 0.16 0.15 0.15 0.15 0.14 0.13 0.14 0.12 0.12 0.12 0.12 0.14 0.15 0.16 0.18 0.18 0.16 0.13 0.15 0.13 0.14 0.15 0.16 0.17 0.17 0.17 0.18 0.20 0.20 0.19 0.19 0.19 0.19 0.20 0.20 0.21 0.21
0.45 0.48 0.46 0.43 0.47 0.50 0.53 0.55 0.58 0.55 0.53 0.46 0.39 0.30 0.27 0.31 0.35 0.34 0.23 0.17 0.14 0.20 0.18 0.18 0.16 0.17 0.18 0.22 0.22 0.22 0.15 0.13 0.13 0.17 0.20 0.23 0.18 0.17 0.16 0.13 0.12 0.12 0.13 0.13 0.11 0.10 0.09 0.10 0.12 0.15 0.15 0.14 0.14 0.14 0.14 0.14 0.14 0.13 0.13 0.12 0.11 0.13 0.12 0.11 0.15 0.17 0.17 0.16 0.13 0.14 0.13 0.13 0.16 0.17 0.16 0.18 0.18 0.19 0.21 0.21 0.21 0.21 0.20 0.20 0.20 0.20 0.21 0.21
0.45 0.49 0.50 0.43 0.44 0.47 0.49 0.52 0.58 0.53 0.49 0.49 0.40 0.32 0.37 0.41 0.38 0.34 0.23 0.15 0.12 0.16 0.18 0.19 0.19 0.17 0.18 0.16 0.24 0.20 0.15 0.15 0.16 0.15 0.23 0.22 0.16 0.19 0.15 0.14 0.12 0.12 0.11 0.13 0.12 0.11 0.10 0.12 0.16 0.15 0.15 0.14 0.12 0.13 0.13 0.12 0.12 0.14 0.13 0.13 0.13 0.13 0.14 0.13 0.13 0.15 0.17 0.17 0.18 0.15 0.12 0.12 0.14 0.14 0.15 0.17 0.19 0.19 0.20 0.21 0.22 0.22 0.22 0.22 0.22 0.21 0.22 0.22
0.44 0.46 0.49 0.49 0.49 0.51 0.52 0.54 0.51 0.50 0.53 0.43 0.34 0.40 0.43 0.44 0.42 0.33 0.20 0.16 0.14 0.14 0.24 0.20 0.21 0.19 0.20 0.27 0.26 0.18 0.19 0.18 0.18 0.20 0.22 0.22 0.19 0.18 0.16 0.19 0.15 0.11 0.12 0.13 0.13 0.11 0.11 0.14 0.17 0.14 0.14 0.14 0.13 0.12 0.13 0.13 0.11 0.13 0.15 0.14 0.14 0.15 0.14 0.15 0.15 0.14 0.13 0.12 0.16 0.14 0.09 0.08 0.13 0.14 0.15 0.17 0.18 0.18 0.20 0.20 0.21 0.21 0.21 0.22 0.22 0.22 0.24 0.24
0.43 0.49 0.53 0.55 0.56 0.54 0.53 0.49 0.50 0.55 0.46 0.33 0.32 0.40 0.41 0.41 0.44 0.33 0.19 0.12 0.09 0.12 0.18 0.11 0.22 0.16 0.27 0.18 0.21 0.19 0.18 0.14 0.21 0.22 0.24 0.24 0.26 0.19 0.18 0.14 0.16 0.11 0.13 0.13 0.12 0.12 0.12 0.16 0.15 0.13 0.13 0.13 0.13 0.12 0.14 0.14 0.12 0.12 0.13 0.16 0.16 0.15 0.15 0.15 0.14 0.14 0.10 0.09 0.13 0.16 0.10 0.08 0.12 0.13 0.15 0.17 0.17 0.18 0.19 0.20 0.21 0.21 0.22 0.22 0.23 0.24 0.24 0.25
0.45 0.48 0.55 0.56 0.55 0.53 0.42 0.38 0.49 0.46 0.32 0.28 0.35 0.40 0.38 0.38 0.38 0.31 0.14 0.11 0.08 0.15 0.12 0.16 0.18 0.20 0.26 0.22 0.21 0.20 0.09 0.13 0.23 0.23 0.21 0.24 0.18 0.26 0.14 0.13 0.15 0.16 0.16 0.15 0.12 0.10 0.13 0.14 0.14 0.14 0.13 0.12 0.12 0.12 0.14 0.14 0.13 0.11 0.16 0.17 0.17 0.16 0.15 0.14 0.14 0.14 0.12 0.15 0.16 0.15 0.14 0.10 0.09 0.12 0.16 0.17 0.17 0.18 0.19 0.21 0.21 0.22 0.22 0.23 0.24 0.25 0.26 0.27
0.44 0.46 0.47 0.50 0.45 0.37 0.33 0.38 0.41 0.32 0.31 0.34 0.41 0.37 0.38 0.37 0.35 0.28 0.14 0.06 0.05 0.19 0.13 0.15 0.17 0.31 0.25 0.24 0.23 0.16 0.15 0.20 0.14 0.18 0.22 0.23 0.23 0.18 0.15 0.12 0.12 0.13 0.14 0.14 0.08 0.13 0.13 0.13 0.13 0.13 0.13 0.12 0.12 0.13 0.15 0.16 0.14 0.14 0.17 0.18 0.16 0.16 0.16 0.15 0.14 0.13 0.14 0.13 0.11 0.13 0.15 0.11 0.10 0.14 0.17 0.17 0.16 0.18 0.19 0.20 0.21 0.22 0.22 0.23 0.24 0.25 0.26 0.27
0.41 0.44 0.44 0.40 0.37 0.36 0.39 0.37 0.34 0.30 0.39 0.40 0.39 0.39 0.34 0.38 0.28 0.15 0.10 0.06 0.13 0.15 0.31 0.15 0.30 0.21 0.19 0.20 0.15 0.16 0.15 0.18 0.12 0.17 0.19 0.21 0.23 0.18 0.13 0.15 0.15 0.15 0.16 0.14 0.10 0.13 0.15 0.15 0.15 0.14 0.13 0.12 0.14 0.15 0.16 0.16 0.14 0.16 0.18 0.19 0.18 0.18 0.17 0.16 0.14 0.13 0.13 0.11 0.09 0.12 0.14 0.11 0.10 0.13 0.16 0.18 0.17 0.17 0.18 0.20 0.21 0.22 0.23 0.24 0.24 0.26 0.27 0.28
0.39 0.41 0.41 0.40 0.37 0.36 0.35 0.39 0.34 0.42 0.45 0.42 0.38 0.36 0.34 0.30 0.20 0.11 0.08 0.06 0.22 0.12 0.18 0.20 0.17 0.15 0.18 0.14 0.13 0.15 0.13 0.14 0.16 0.17 0.17 0.15 0.17 0.21 0.19 0.21 0.16 0.14 0.13 0.16 0.14 0.15 0.16 0.21 0.21 0.16 0.14 0.15 0.16 0.17 0.18 0.17 0.17 0.19 0.18 0.16 0.16 0.16 0.15 0.15 0.14 0.13 0.12 0.08 0.10 0.13 0.14 0.13 0.10 0.12 0.16 0.16 0.17 0.19 0.20 0.20 0.21 0.22 0.23 0.25 0.25 0.26 0.27 0.29
0.39 0.40 0.39 0.38 0.30 0.33 0.31 0.28 0.34 0.45 0.44 0.41 0.38 0.34 0.30 0.21 0.14 0.11 0.08 0.09 0.15 0.15 0.19 0.17 0.14 0.18 0.13 0.12 0.10 0.14 0.13 0.14 0.14 0.14 0.12 0.15 0.13 0.16 0.16 0.13 0.18 0.13 0.13 0.13 0.12 0.14 0.16 0.17 0.17 0.18 0.21 0.19 0.19 0.17 0.19 0.20 0.19 0.18 0.16 0.15 0.14 0.13 0.14 0.12 0.12 0.13 0.09 0.08 0.11 0.13 0.13 0.14 0.10 0.12 0.17 0.19 0.21 0.21 0.20 0.20 0.21 0.22 0.23 0.24 0.26 0.27 0.29 0.31
0.38 0.38 0.38 0.35 0.37 0.40 0.26 0.25 0.36 0.45 0.41 0.38 0.32 0.25 0.22 0.13 0.14 0.10 0.09 0.19 0.09 0.12 0.13 0.13 0.16 0.15 0.13 0.14 0.12 0.11 0.11 0.11 0.14 0.13 0.11 0.11 0.11 0.11 0.12 0.09 0.11 0.08 0.08 0.10 0.09 0.14 0.12 0.13 0.17 0.18 0.23 0.19 0.17 0.16 0.16 0.18 0.18 0.17 0.16 0.15 0.11 0.09 0.10 0.07 0.10 0.08 0.08 0.08 0.11 0.14 0.15 0.13 0.12 0.15 0.18 0.20 0.21 0.22 0.23 0.22 0.22 0.23 0.24 0.25 0.26 0.28 0.30 0.31
0.38 0.38 0.38 0.37 0.38 0.34 0.36 0.41 0.45 0.41 0.38 0.33 0.25 0.23 0.15 0.11 0.07 0.09 0.08 0.10 0.07 0.15 0.12 0.17 0.14 0.14 0.14 0.12 0.11 0.12 0.15 0.09 0.14 0.12 0.13 0.13 0.11 0.11 0.13 0.13 0.14 0.11 0.07 0.10 0.10 0.10 0.11 0.15 0.16 0.16 0.18 0.21 0.18 0.13 0.13 0.14 0.15 0.15 0.14 0.13 0.11 0.08 0.08 0.06 0.07 0.09 0.09 0.11 0.14 0.14 0.15 0.12 0.13 0.17 0.20 0.21 0.22 0.24 0.24 0.25 0.25 0.25 0.26 0.26 0.27 0.28 0.30 0.32
0.36 0.36 0.33 0.37 0.35 0.36 0.38 0.41 0.41 0.40 0.31 0.27 0.22 0.16 0.13 0.09 0.07 0.16 0.11 0.11 0.10 0.17 0.16 0.14 0.14 0.14 0.13 0.10 0.10 0.12 0.09 0.13 0.12 0.12 0.12 0.10 0.11 0.09 0.11 0.13 0.14 0.12 0.11 0.11 0.09 0.10 0.07 0.08 0.12 0.15 0.13 0.19 0.18 0.17 0.16 0.15 0.15 0.15 0.17 0.14 0.12 0.11 0.10 0.07 0.08 0.07 0.08 0.10 0.12 0.15 0.12 0.11 0.11 0.15 0.21 0.23 0.24 0.24 0.25 0.26 0.27 0.27 0.28 0.28 0.29 0.30 0.31 0.32
0.34 0.34 0.34 0.33 0.33 0.35 0.38 0.40 0.39 0.37 0.29 0.22 0.18 0.13 0.10 0.09 0.10 0.10 0.10 0.11 0.12 0.14 0.12 0.16 0.11 0.10 0.10 0.11 0.12 0.13 0.11 0.09 0.13 0.11 0.11 0.10 0.09 0.10 0.09 0.11 0.14 0.14 0.14 0.09 0.12 0.11 0.10 0.09 0.13 0.18 0.17 0.19 0.17 0.18 0.19 0.17 0.15 0.16 0.16 0.17 0.13 0.12 0.15 0.10 0.12 0.11 0.11 0.11 0.10 0.11 0.11 0.14 0.14 0.20 0.23 0.24 0.25 0.24 0.26 0.26 0.27 0.27 0.28 0.28 0.29 0.30 0.30 0.31
0.34 0.29 0.32 0.29 0.30 0.34 0.39 0.40 0.37 0.32 0.25 0.19 0.13 0.11 0.09 0.10 0.09 0.12 0.11 0.16 0.15 0.11 0.11 0.12 0.11 0.09 0.09 0.09 0.11 0.11 0.17 0.11 0.11 0.11 0.10 0.11 0.11 0.10 0.12 0.12 0.13 0.15 0.13 0.10 0.12 0.09 0.11 0.09 0.15 0.17 0.18 0.17 0.17 0.19 0.18 0.19 0.11 0.14 0.15 0.12 0.14 0.18 0.16 0.13 0.13 0.14 0.14 0.12 0.09 0.13 0.12 0.14 0.19 0.19 0.23 0.23 0.23 0.24 0.25 0.26 0.26 0.27 0.28 0.29 0.29 0.29 0.30 0.31
0.25 0.26 0.24 0.27 0.28 0.34 0.38 0.38 0.34 0.27 0.22 0.17 0.12 0.09 0.11 0.11 0.13 0.12 0.16 0.13 0.13 0.13 0.11 0.08 0.08 0.08 0.08 0.07 0.08 0.10 0.11 0.13 0.11 0.11 0.08 0.11 0.09 0.12 0.12 0.13 0.16 0.16 0.17 0.14 0.12 0.15 0.10 0.10 0.15 0.15 0.14 0.18 0.20 0.19 0.19 0.19 0.19 0.16 0.12 0.15 0.18 0.19 0.18 0.14 0.11 0.12 0.11 0.10 0.10 0.12 0.11 0.11 0.14 0.12 0.21 0.21 0.21 0.23 0.23 0.24 0.25 0.27 0.28 0.27 0.28 0.29 0.29 0.29
0.24 0.23 0.22 0.24 0.28 0.34 0.37 0.37 0.30 0.25 0.19 0.14 0.10 0.10 0.15 0.11 0.16 0.15 0.19 0.16 0.15 0.14 0.11 0.09 0.09 0.11 0.08 0.08 0.08 0.10 0.11 0.09 0.10 0.11 0.09 0.11 0.09 0.15 0.14 0.13 0.17 0.16 0.17 0.19 0.13 0.14 0.15 0.10 0.13 0.16 0.16 0.17 0.19 0.18 0.16 0.19 0.20 0.16 0.15 0.20 0.15 0.12 0.12 0.15 0.14 0.10 0.10 0.09 0.10 0.11 0.12 0.12 0.15 0.15 0.19 0.19 0.20 0.21 0.23 0.24 0.25 0.26 0.27 0.27 0.27 0.28 0.28 0.29
0.26 0.22 0.17 0.24 0.33 0.35 0.34 0.34 0.26 0.20 0.15 0.11 0.10 0.09 0.13 0.13 0.17 0.16 0.19 0.18 0.17 0.13 0.10 0.11 0.09 0.11 0.11 0.09 0.10 0.11 0.11 0.09 0.11 0.10 0.09 0.11 0.09 0.14 0.14 0.15 0.14 0.18 0.19 0.19 0.15 0.16 0.16 0.10 0.11 0.16 0.15 0.17 0.17 0.16 0.11 0.14 0.18 0.19 0.20 0.18 0.20 0.17 0.15 0.13 0.14 0.14 0.14 0.10 0.10 0.10 0.12 0.11 0.16 0.18 0.20 0.20 0.21 0.22 0.23 0.24 0.25 0.25 0.26 0.27 0.27 0.27 0.28 0.28
0.20 0.16 0.15 0.26 0.33 0.35 0.33 0.29 0.21 0.17 0.14 0.09 0.11 0.10 0.16 0.13 0.16 0.20 0.21 0.19 0.14 0.13 0.11 0.11 0.12 0.10 0.11 0.11 0.11 0.10 0.12 0.11 0.11 0.11 0.10 0.11 0.11 0.15 0.14 0.18 0.15 0.17 0.18 0.19 0.16 0.18 0.13 0.15 0.09 0.12 0.17 0.16 0.12 0.15 0.13 0.14 0.13 0.15 0.16 0.15 0.17 0.17 0.19 0.18 0.17 0.15 0.13 0.12 0.11 0.11 0.10 0.12 0.18 0.22 0.21 0.21 0.22 0.23 0.24 0.24 0.25 0.25 0.26 0.27 0.27 0.27 0.28 0.28
0.24 0.16 0.16 0.27 0.29 0.32 0.29 0.22 0.16 0.14 0.13 0.15 0.15 0.13 0.15 0.13 0.17 0.18 0.20 0.23 0.18 0.21 0.14 0.13 0.12 0.11 0.11 0.11 0.11 0.13 0.11 0.12 0.12 0.11 0.11 0.12 0.12 0.10 0.18 0.17 0.18 0.15 0.18 0.17 0.15 0.16 0.13 0.13 0.10 0.11 0.12 0.12 0.13 0.17 0.17 0.17 0.17 0.16 0.16 0.15 0.17 0.16 0.15 0.12 0.11 0.17 0.16 0.14 0.12 0.12 0.11 0.14 0.20 0.23 0.23 0.23 0.24 0.24 0.25 0.25 0.25 0.26 0.26 0.26 0.27 0.27 0.28 0.28
0.18 0.12 0.14 0.26 0.29 0.30 0.22 0.14 0.14 0.18 0.14 0.12 0.11 0.15 0.13 0.21 0.15 0.16 0.19 0.21 0.20 0.16 0.20 0.16 0.16 0.14 0.13 0.12 0.13 0.13 0.12 0.11 0.12 0.11 0.12 0.11 0.14 0.13 0.17 0.21 0.18 0.18 0.15 0.13 0.14 0.17 0.16 0.15 0.12 0.10 0.11 0.12 0.14 0.17 0.19 0.19 0.19 0.19 0.19 0.17 0.19 0.18 0.17 0.15 0.11 0.13 0.16 0.16 0.17 0.16 0.13 0.12 0.21 0.23 0.24 0.24 0.25 0.25 0.26 0.26 0.25 0.25 0.26 0.26 0.27 0.27 0.28 0.29
0.17 0.14 0.23 0.27 0.30 0.26 0.18 0.13 0.16 0.14 0.12 0.16 0.19 0.18 0.20 0.18 0.16 0.18 0.16 0.18 0.15 0.18 0.16 0.15 0.15 0.13 0.15 0.14 0.14 0.13 0.14 0.11 0.12 0.11 0.12 0.13 0.13 0.15 0.19 0.19 0.20 0.17 0.17 0.15 0.16 0.17 0.18 0.13 0.11 0.11 0.13 0.15 0.17 0.18 0.19 0.20 0.20 0.18 0.19 0.20 0.19 0.17 0.18 0.17 0.16 0.17 0.15 0.16 0.15 0.15 0.12 0.13 0.21 0.24 0.25 0.25 0.26 0.26 0.27 0.26 0.25 0.25 0.26 0.26 0.27 0.27 0.27 0.28
0.19 0.18 0.19 0.26 0.29 0.27 0.16 0.11 0.10 0.11 0.12 0.16 0.16 0.15 0.19 0.17 0.16 0.15 0.15 0.16 0.15 0.15 0.14 0.14 0.15 0.17 0.14 0.17 0.15 0.12 0.15 0.10 0.13 0.12 0.12 0.14 0.13 0.22 0.22 0.20 0.20 0.16 0.16 0.15 0.13 0.20 0.13 0.14 0.13 0.10 0.09 0.10 0.13 0.16 0.17 0.19 0.18 0.17 0.17 0.19 0.19 0.19 0.19 0.19 0.19 0.19 0.15 0.15 0.16 0.14 0.11 0.13 0.20 0.24 0.25 0.25 0.25 0.25 0.25 0.26 0.26 0.25 0.26 0.26 0.26 0.26 0.27 0.28
0.19 0.22 0.20 0.21 0.26 0.24 0.15 0.16 0.13 0.11 0.12 0.11 0.12 0.11 0.13 0.14 0.18 0.17 0.16 0.15 0.18 0.17 0.16 0.14 0.16 0.16 0.15 0.17 0.15 0.16 0.16 0.13 0.11 0.14 0.14 0.14 0.14 0.20 0.21 0.20 0.21 0.18 0.20 0.22 0.19 0.21 0.15 0.14 0.13 0.10 0.08 0.07 0.07 0.08 0.10 0.12 0.15 0.18 0.19 0.19 0.20 0.19 0.19 0.19 0.16 0.16 0.14 0.15 0.17 0.15 0.13 0.16 0.21 0.23 0.24 0.25 0.25 0.25 0.25 0.25 0.26 0.27 0.27 0.27 0.27 0.27 0.27 0.28
0.14 0.10 0.15 0.16 0.19 0.19 0.18 0.21 0.16 0.13 0.11 0.11 0.11 0.12 0.13 0.12 0.16 0.19 0.20 0.17 0.20 0.19 0.18 0.17 0.18 0.18 0.15 0.15 0.13 0.13 0.13 0.16 0.13 0.12 0.13 0.12 0.15 0.17 0.20 0.21 0.21 0.20 0.21 0.22 0.21 0.19 0.15 0.16 0.15 0.14 0.12 0.11 0.12 0.14 0.17 0.18 0.17 0.16 0.18 0.19 0.19 0.20 0.20 0.19 0.18 0.16 0.15 0.16 0.15 0.17 0.18 0.17 0.18 0.21 0.22 0.24 0.25 0.24 0.23 0.24 0.25 0.25 0.26 0.27 0.27 0.26 0.27 0.28
0.16 0.11 0.14 0.12 0.15 0.16 0.14 0.17 0.15 0.15 0.11 0.14 0.09 0.12 0.11 0.12 0.14 0.15 0.22 0.15 0.19 0.18 0.18 0.17 0.16 0.14 0.14 0.14 0.13 0.12 0.14 0.13 0.15 0.14 0.13 0.13 0.15 0.17 0.21 0.21 0.22 0.22 0.22 0.21 0.21 0.19 0.16 0.14 0.15 0.15 0.15 0.15 0.16 0.17 0.18 0.19 0.17 0.18 0.18 0.18 0.19 0.19 0.19 0.19 0.17 0.16 0.19 0.16 0.13 0.18 0.19 0.18 0.19 0.21 0.23 0.24 0.24 0.24 0.24 0.24 0.25 0.25 0.25 0.25 0.25 0.26 0.27 0.28
0.12 0.15 0.16 0.18 0.11 0.11 0.11 0.11 0.15 0.13 0.14 0.14 0.12 0.14 0.12 0.12 0.13 0.12 0.16 0.19 0.20 0.21 0.15 0.15 0.16 0.16 0.15 0.13 0.13 0.11 0.12 0.12 0.13 0.12 0.14 0.15 0.15 0.17 0.17 0.21 0.20 0.22 0.22 0.20 0.22 0.18 0.15 0.13 0.15 0.15 0.15 0.17 0.18 0.18 0.19 0.19 0.19 0.19 0.19 0.18 0.18 0.19 0.19 0.18 0.18 0.19 0.19 0.17 0.15 0.18 0.20 0.19 0.21 0.23 0.24 0.25 0.24 0.24 0.25 0.25 0.25 0.25 0.25 0.24 0.24 0.25 0.25 0.24
0.18 0.17 0.16 0.20 0.12 0.14 0.13 0.13 0.15 0.14 0.13 0.14 0.14 0.14 0.13 0.13 0.13 0.14 0.14 0.15 0.17 0.16 0.17 0.11 0.13 0.14 0.15 0.16 0.14 0.12 0.13 0.11 0.11 0.14 0.14 0.14 0.15 0.15 0.15 0.17 0.22 0.24 0.22 0.20 0.20 0.20 0.17 0.15 0.16 0.17 0.17 0.18 0.19 0.19 0.19 0.18 0.18 0.19 0.18 0.18 0.19 0.19 0.19 0.19 0.19 0.20 0.20 0.19 0.21 0.21 0.21 0.21 0.23 0.24 0.25 0.25 0.26 0.26 0.25 0.25 0.25 0.24 0.23 0.23 0.23 0.23 0.23 0.23
0.13 0.13 0.12 0.18 0.16 0.14 0.15 0.14 0.14 0.14 0.12 0.15 0.12 0.14 0.14 0.14 0.13 0.15 0.16 0.15 0.12 0.14 0.18 0.14 0.14 0.15 0.16 0.16 0.15 0.13 0.14 0.15 0.14 0.13 0.16 0.15 0.15 0.17 0.16 0.16 0.16 0.22 0.22 0.19 0.20 0.21 0.18 0.15 0.20 0.18 0.15 0.16 0.17 0.18 0.18 0.18 0.18 0.16 0.17 0.18 0.19 0.19 0.20 0.20 0.21 0.21 0.22 0.21 0.22 0.22 0.21 0.21 0.25 0.27 0.25 0.26 0.26 0.25 0.25 0.23 0.23 0.22 0.21 0.21 0.22 0.22 0.23 0.21
0.18 0.17 0.16 0.12 0.10 0.14 0.15 0.15 0.14 0.14 0.13 0.14 0.13 0.14 0.14 0.14 0.14 0.15 0.15 0.18 0.15 0.13 0.15 0.14 0.15 0.16 0.18 0.17 0.16 0.16 0.18 0.18 0.18 0.18 0.19 0.18 0.15 0.19 0.17 0.17 0.21 0.18 0.21 0.20 0.20 0.20 0.19 0.16 0.18 0.16 0.13 0.13 0.16 0.16 0.17 0.17 0.17 0.16 0.16 0.18 0.19 0.19 0.18 0.21 0.21 0.23 0.22 0.21 0.22 0.22 0.20 0.21 0.24 0.25 0.24 0.23 0.22 0.22 0.23 0.23 0.22 0.19 0.19 0.22 0.22 0.22 0.18 0.14
0.19 0.20 0.18 0.14 0.10 0.13 0.12 0.16 0.16 0.14 0.12 0.14 0.14 0.14 0.14 0.15 0.16 0.17 0.13 0.19 0.19 0.20 0.18 0.17 0.18 0.17 0.16 0.17 0.16 0.18 0.21 0.21 0.22 0.23 0.23 0.24 0.24 0.24 0.23 0.23 0.23 0.20 0.19 0.19 0.20 0.18 0.18 0.17 0.15 0.15 0.12 0.12 0.15 0.16 0.16 0.16 0.15 0.14 0.16 0.18 0.20 0.21 0.22 0.23 0.24 0.25 0.25 0.24 0.21 0.19 0.19 0.23 0.24 0.24 0.21 0.19 0.19 0.20 0.22 0.22 0.18 0.16 0.20 0.23 0.21 0.16 0.16 0.19
Wind_Speed
8 8 8 7 7 7 7 7 7 7 6 6 6 6 6 5 5 5 5 5 5 4 4 3 3 3 3 3 3 3 4 4 4 5 5 3 3 4 4 3 3 3 2 3 3 3 4 5 5 5 4 4 4 5 5 5 6 6 6 6 6 6 6 6 6 7 8 8 9 9 9 9 11 11 12 13 13 14 15 15 15 16 17 17 18 19 19 18
8 7 7 7 7 7 7 7 7 6 6 6 6 6 5 4 4 4 5 4 4 4 3 2 2 2 2 2 2 2 2 2 3 5 4 3 5 5 4 4 3 3 3 3 3 4 4 5 5 5 5 4 5 6 6 6 6 6 6 6 7 6 7 7 6 7 8 8 8 9 9 10 11 11 12 13 14 14 16 16 16 18 19 19 19 19 19 18
7 7 7 7 7 7 7 7 7 6 5 5 5 5 5 4 4 4 4 4 3 3 2 1 1 2 2 2 2 2 2 1 2 3 3 4 6 5 5 4 3 3 3 3 3 4 4 4 5 5 5 5 6 6 6 7 7 6 6 6 7 7 7 8 7 7 9 8 7 9 10 11 12 12 12 14 15 15 16 17 16 18 20 19 19 19 19 19
7 7 6 6 7 7 7 7 6 6 5 5 6 5 5 4 4 4 4 4 3 3 2 1 1 1 1 1 3 3 2 1 1 1 3 5 6 6 5 4 3 3 3 3 3 4 4 5 6 6 5 5 7 6 7 8 7 6 6 6 7 7 7 8 8 8 9 9 8 9 10 12 14 13 14 14 15 17 18 18 18 19 20 19 19 19 20 20
6 6 6 6 7 7 7 7 6 6 6 6 6 6 5 5 5 5 4 4 3 3 3 2 1 1 1 1 3 4 3 2 1 2 3 6 6 6 5 5 4 3 3 3 4 5 5 6 7 6 6 6 8 7 7 7 6 6 7 7 7 7 8 8 9 9 9 10 10 10 12 14 14 14 15 15 16 18 18 19 19 20 20 19 19 20 20 21
6 6 6 6 7 8 7 7 7 6 6 7 7 6 5 5 6 5 5 4 4 4 3 2 2 1 1 0 1 3 3 3 2 2 4 6 6 6 5 4 4 3 4 4 5 6 6 7 7 7 6 6 7 6 6 7 6 6 7 8 8 8 8 9 9 9 10 10 11 12 13 14 14 16 17 16 19 20 19 19 19 20 20 20 20 20 21 22
6 5 6 7 8 8 7 7 6 7 7 7 7 6 6 6 6 6 6 6 6 5 4 3 3 2 2 1 1 1 3 3 2 3 5 6 6 7 5 5 5 4 4 5 5 6 6 7 6 5 5 6 6 5 6 7 6 6 7 8 9 8 8 10 10 10 11 12 13 14 14 15 15 17 17 18 22 22 21 21 21 21 21 21 21 22 22 23
6 5 6 7 8 8 7 7 7 7 7 7 6 6 7 7 7 7 7 7 6 5 4 4 3 3 3 3 2 1 2 2 3 3 5 5 6 7 5 5 5 4 4 5 6 6 6 6 5 5 5 5 5 5 6 7 7 7 7 8 8 9 10 11 11 12 13 14 15 15 16 17 17 18 19 21 24 23 22 22 22 22 22 22 23 23 24 24
6 5 6 7 8 8 8 7 7 7 6 6 6 6 7 7 7 7 7 7 6 5 4 3 3 3 3 3 3 2 2 3 3 4 5 5 6 7 6 5 6 5 4 5 6 6 6 6 5 5 5 5 4 6 7 7 8 8 8 8 9 10 11 11 12 13 14 15 16 16 18 19 19 20 21 23 24 23 22 22 22 22 23 23 24 24 24 25
6 5 6 7 7 8 8 7 7 6 6 6 6 6 7 6 6 7 7 7 6 5 4 3 3 2 3 4 3 3 3 3 3 4 4 5 6 6 6 6 6 5 5 6 6 6 6 5 5 4 3 4 5 7 8 7 7 7 7 8 9 11 12 12 13 14 15 17 17 17 19 20 20 20 21 22 22 21 21 22 23 23 24 25 25 25 25 26
6 5 6 7 7 8 7 6 6 6 6 5 5 5 6 6 6 7 7 6 6 5 4 4 3 2 2 3 3 3 3 3 3 3 4 5 5 6 6 6 6 5 5 6 6 6 5 4 4 5 5 5 5 7 7 7 7 8 8 9 12 13 13 14 14 15 16 17 17 18 20 20 19 20 22 24 22 22 22 22 23 23 24 25 25 26 26 27
6 6 6 7 8 8 7 6 6 5 5 5 5 5 6 6 6 7 7 6 5 4 4 4 4 3 3 2 2 3 3 3 3 3 4 4 4 5 6 6 6 5 5 5 6 6 5 4 5 5 6 5 6 7 7 7 8 9 9 11 14 15 14 15 15 16 17 17 18 20 21 19 19 21 24 23 22 22 23 23 24 24 25 25 26 26 27 28
6 6 7 8 8 8 7 6 6 5 5 4 4 5 6 7 7 6 6 5 5 4 4 4 4 4 4 3 3 3 3 3 3 2 3 4 4 4 6 6 6 6 6 5 5 6 5 6 6 5 5 5 6 7 7 8 9 10 11 12 13 15 15 15 15 16 17 18 18 20 22 20 19 23 24 22 22 22 23 24 24 24 25 25 26 27 28 29
6 7 7 8 8 9 8 7 6 5 5 5 5 5 7 7 7 7 6 5 5 5 5 4 4 4 4 4 4 3 3 3 3 3 3 4 4 4 6 7 7 7 7 6 6 6 6 6 6 5 6 6 6 6 8 11 11 11 12 13 14 15 16 17 16 16 17 18 19 20 22 22 22 24 24 22 22 22 23 24 24 24 25 26 26 27 28 29
7 7 8 8 8 8 8 7 6 5 5 5 6 6 6 7 8 7 6 5 5 5 5 4 4 4 4 4 4 3 3 3 3 3 3 4 4 4 6 6 7 7 7 7 6 6 6 7 7 6 7 7 6 8 10 12 12 12 13 14 15 15 17 19 18 17 18 19 20 20 22 23 23 24 24 22 21 21 24 25 25 25 26 26 27 27 29 30
7 8 8 9 8 8 8 8 7 6 5 6 6 6 6 7 8 8 6 6 5 5 6 5 4 4 4 4 4 3 3 3 3 4 3 4 4 5 6 6 7 8 7 7 7 7 8 8 8 7 7 8 8 9 11 12 13 14 14 15 16 16 18 19 19 18 19 20 21 21 23 24 23 23 23 22 22 22 24 26 26 26 26 27 27 28 28 29
7 8 9 9 9 9 8 8 7 7 6 6 7 6 6 7 8 8 7 6 6 5 5 5 5 4 4 5 4 4 4 4 4 4 4 4 5 5 6 6 7 8 8 8 8 9 10 9 8 8 9 10 10 10 12 13 14 15 15 16 17 17 18 20 20 20 21 21 22 22 24 25 25 24 24 23 23 24 24 26 27 27 27 27 27 28 28 28
7 8 9 10 10 9 9 8 8 8 8 7 7 7 7 7 8 8 7 7 7 6 6 5 5 4 4 4 4 4 5 4 4 5 5 5 5 6 6 7 8 9 9 9 9 10 10 10 9 10 11 12 12 11 12 14 14 15 16 17 18 18 19 20 21 21 21 22 23 24 25 27 27 26 26 25 25 25 26 26 26 27 27 27 27 27 27 27
7 8 10 10 10 9 9 8 8 8 9 9 8 8 8 8 8 7 6 6 7 7 7 6 5 5 6 5 5 5 4 4 4 5 6 6 6 6 6 7 8 8 9 9 10 11 10 10 10 11 11 12 12 11 12 14 13 14 16 17 18 20 20 20 21 22 22 23 24 24 26 28 27 26 27 26 25 25 26 26 26 26 26 26 26 26 26 27
7 8 9 10 10 10 8 8 8 8 9 9 8 7 8 8 8 8 6 5 6 7 7 6 5 5 5 6 6 5 5 4 4 5 6 7 7 7 7 9 9 9 9 9 11 11 10 10 11 11 12 12 13 12 13 14 14 15 16 17 19 20 21 21 22 22 22 24 25 24 27 28 28 28 27 26 24 24 25 24 25 26 26 26 26 26 27 27
7 8 9 10 10 10 9 8 8 9 9 10 9 8 8 8 8 8 7 6 7 7 6 6 6 5 5 6 6 6 5 5 5 6 7 7 7 7 8 9 8 9 10 10 11 12 11 11 12 12 12 12 13 13 14 15 16 16 17 19 20 20 22 22 21 23 23 25 25 26 28 29 28 27 26 24 23 23 23 23 24 25 25 25 25 26 27 27
7 8 9 10 10 10 9 8 8 9 9 10 9 9 9 9 9 8 8 7 7 7 6 6 6 5 5 6 6 5 5 5 6 6 7 7 7 7 8 9 8 9 11 11 12 13 13 12 13 13 12 13 14 14 15 16 16 17 18 20 21 21 22 23 22 23 24 25 27 28 29 30 28 26 24 24 23 23 23 23 24 24 24 25 25 26 27 28
7 8 9 9 9 10 9 8 9 9 9 10 10 9 9 9 8 7 7 7 7 7 7 6 6 6 6 6 6 5 5 6 7 7 8 8 7 7 8 8 9 10 12 12 11 12 13 14 14 13 12 13 15 16 16 17 17 18 19 20 22 22 22 23 23 24 24 25 27 29 29 29 26 24 24 24 23 24 24 23 23 23 24 25 25 26 27 28
7 8 9 9 9 9 9 8 8 8 9 9 9 9 8 8 8 7 6 7 8 8 7 7 7 6 6 6 6 6 6 6 7 8 9 8 7 8 8 8 9 11 12 12 11 12 14 14 14 13 14 15 15 16 16 17 19 20 19 20 22 22 22 23 25 26 26 25 26 29 29 26 23 24 25 25 24 25 24 23 24 23 24 25 26 27 28 28
7 8 9 9 9 9 9 8 7 8 8 9 8 8 8 8 8 7 6 6 7 8 8 7 7 7 7 7 7 7 7 7 7 8 9 8 8 9 9 10 11 11 12 12 12 13 14 14 14 14 16 16 16 17 18 18 20 21 20 20 21 22 23 24 26 27 27 26 25 27 27 24 24 26 26 25 26 26 24 23 24 24 24 25 26 27 28 29
8 8 8 9 9 9 9 9 8 8 8 8 9 8 8 7 7 7 6 6 7 8 8 8 7 7 7 7 8 7 7 8 8 9 9 9 10 10 10 11 12 12 12 13 13 14 14 15 15 15 16 16 17 19 19 18 19 22 21 20 20 22 24 26 26 26 26 26 26 25 23 24 28 27 26 26 26 26 24 23 25 25 25 24 25 27 28 29
8 7 7 9 9 8 9 8 8 8 8 8 8 8 8 7 7 6 6 5 7 8 8 8 8 7 7 7 8 7 8 9 9 9 9 10 11 11 11 13 13 13 13 13 15 15 14 15 16 16 16 17 17 19 19 17 19 22 21 21 22 24 26 26 25 25 26 26 26 24 22 23 27 27 26 27 25 24 24 24 25 25 24 24 25 27 28 29
8 7 7 8 8 8 8 8 7 8 8 9 8 8 8 7 7 6 5 5 6 7 7 8 8 7 8 8 7 7 9 10 9 10 10 11 12 12 13 13 12 14 14 14 17 17 16 16 16 16 17 18 18 19 18 17 20 22 21 22 24 24 25 25 24 25 26 25 24 24 23 23 26 27 25 25 24 24 26 25 24 24 24 25 26 27 29 29
7 7 7 8 8 8 8 7 7 8 8 8 8 8 8 7 7 6 5 6 6 6 6 7 7 8 9 8 8 9 10 10 10 12 12 12 13 13 13 14 13 13 15 16 17 17 17 17 17 17 17 18 19 19 18 18 21 22 21 23 24 25 25 24 24 24 24 24 23 23 23 23 26 27 25 24 24 25 26 24 23 24 25 26 27 29 29 30
7 7 7 8 8 7 7 7 7 7 7 7 8 8 8 7 6 5 6 7 6 6 6 6 7 8 8 8 9 10 10 11 12 13 13 13 14 14 13 14 14 14 16 17 17 18 18 18 18 18 18 18 18 19 20 20 22 23 22 24 25 26 26 25 25 23 23 23 22 22 24 23 25 26 24 24 25 24 24 24 23 24 26 28 28 29 30 30
7 7 7 7 7 7 6 6 6 6 6 7 7 7 7 7 6 5 7 7 6 6 6 5 7 7 7 8 10 11 10 12 13 13 13 14 14 15 14 15 16 16 18 18 19 19 19 18 19 19 19 18 18 20 21 22 23 22 23 25 27 26 26 25 24 23 22 23 23 23 25 23 22 24 24 24 25 23 23 23 24 26 28 29 29 30 30 31
6 7 6 6 6 5 5 5 5 5 6 6 7 6 6 6 6 7 8 7 6 6 6 6 8 7 8 9 10 11 12 12 13 12 13 14 15 15 15 16 17 18 19 19 19 21 20 19 19 20 19 18 19 21 22 23 23 22 24 25 25 26 25 24 24 23 22 23 23 24 25 25 23 23 25 25 25 24 23 23 24 26 28 30 31 31 31 32
6 6 6 5 5 5 4 4 4 5 6 6 6 6 5 5 7 8 8 7 6 7 7 8 8 8 9 11 11 12 12 13 13 13 13 14 15 16 16 17 17 18 19 19 20 21 20 20 19 19 19 19 19 21 23 23 23 23 24 23 23 23 24 25 25 24 25 24 25 26 25 25 24 24 24 23 23 25 24 24 25 26 28 30 31 33 33 34
5 6 6 5 4 4 4 4 4 5 6 6 6 6 5 7 8 8 8 8 8 8 8 9 10 10 10 11 12 12 12 13 13 13 14 15 15 16 17 18 18 17 18 19 20 19 19 20 19 19 19 20 21 22 22 22 23 24 23 22 23 22 22 25 24 25 27 27 27 26 24 22 23 25 22 20 23 26 25 24 25 27 29 30 32 33 34 36
5 5 5 5 4 3 3 4 5 5 6 6 4 5 6 8 8 7 8 9 9 9 10 10 10 11 12 12 12 11 12 13 13 14 15 15 16 16 17 18 18 17 17 18 19 18 19 20 20 20 21 21 22 22 22 22 23 24 23 23 24 23 22 24 24 25 27 28 27 24 23 23 24 25 22 19 23 25 25 26 27 30 31 32 33 34 35 37
4 5 5 5 4 4 4 4 5 5 5 5 4 5 7 8 7 8 8 8 9 9 10 11 10 11 12 12 12 12 12 14 15 15 15 16 16 17 17 17 18 17 17 18 19 19 20 21 21 21 22 22 22 23 23 23 23 24 24 25 25 24 23 23 26 26 25 26 26 24 25 27 25 23 21 21 25 26 26 28 30 31 33 33 34 36 37 39
4 4 5 5 5 4 4 5 5 5 5 4 4 7 8 7 7 8 8 8 9 9 9 11 11 11 12 12 13 14 14 15 15 16 16 17 17 16 16 17 18 18 19 19 20 20 20 23 23 22 22 23 23 23 24 24 24 24 24 25 25 24 23 23 25 26 24 25 26 25 26 26 23 22 23 25 28 29 29 30 31 33 34 34 36 38 40 41
4 4 4 4 4 4 4 4 4 4 4 4 5 7 7 7 7 8 8 9 9 9 9 11 12 11 11 12 14 15 15 16 16 16 17 18 17 16 17 18 19 19 20 19 20 21 21 24 24 22 21 23 24 24 25 25 24 24 24 25 24 23 24 24 24 25 25 26 27 26 25 24 21 21 25 28 30 31 32 32 33 35 35 36 39 41 42 43
3 3 4 4 4 4 4 4 4 4 4 4 6 7 7 7 8 8 9 9 9 9 10 11 12 12 12 13 15 15 15 16 17 17 18 18 18 18 18 19 19 19 20 20 20 22 22 22 24 23 23 24 25 24 25 25 25 25 25 25 24 23 23 24 23 23 23 25 26 26 24 21 20 22 25 29 31 32 33 34 34 36 37 39 40 42 44 45
3 3 4 4 4 4 4 4 4 3 4 5 6 6 7 8 8 9 9 10 10 10 11 12 12 13 14 14 15 16 16 16 17 17 18 18 19 19 19 19 19 19 21 21 21 22 22 22 24 25 25 25 25 24 24 24 24 24 24 25 25 24 24 25 24 23 22 23 23 25 24 21 21 24 27 30 31 31 34 35 36 38 40 41 42 44 46 46
4 4 5 5 4 4 4 3 3 4 4 6 6 7 7 8 8 9 10 10 10 11 11 12 12 13 14 15 15 16 16 17 17 18 19 19 19 19 19 20 20 20 21 22 22 23 23 22 24 26 26 25 25 25 24 24 23 23 23 23 23 23 23 24 25 23 21 21 21 23 26 26 24 25 27 29 31 32 35 37 38 40 42 44 45 46 47 48
4 4 5 5 4 4 3 3 4 4 5 6 7 7 8 8 8 9 10 10 11 11 12 12 13 13 14 15 15 16 16 18 18 18 19 19 19 20 20 21 21 21 21 22 23 23 22 23 24 27 27 26 25 24 24 23 21 21 22 23 22 23 22 21 23 23 22 22 22 22 25 27 26 25 27 30 32 34 37 39 41 43 44 46 47 48 49 50
4 5 5 4 4 4 3 4 5 5 6 6 7 7 8 8 9 9 10 11 11 11 12 13 13 14 15 15 15 16 17 18 17 17 19 19 20 20 20 21 22 22 22 22 23 23 23 23 25 27 28 26 24 23 22 22 21 22 23 23 22 22 22 21 22 23 23 23 24 24 25 27 27 27 29 33 35 37 39 42 43 45 46 48 49 50 51 51
4 5 5 4 4 4 4 5 5 6 7 7 7 8 8 9 9 9 10 11 11 11 12 13 14 14 15 15 15 16 17 18 18 18 19 19 20 20 20 21 22 21 22 22 23 23 23 24 25 27 28 27 25 23 23 24 23 23 24 23 22 22 21 21 22 23 23 24 23 23 26 29 29 31 33 35 36 39 42 44 45 47 48 50 51 52 53 54
4 4 5 5 5 4 5 5 5 6 7 7 8 8 9 9 9 10 11 11 12 12 12 13 14 14 15 15 16 17 18 18 19 19 19 20 21 21 20 21 22 22 23 23 23 24 24 24 24 24 24 25 25 25 25 25 25 24 23 23 23 22 21 22 23 22 23 25 22 23 30 34 34 35 36 36 38 42 45 47 48 48 50 51 52 54 55 55
4 4 5 5 5 4 5 5 5 5 6 7 8 9 9 9 10 11 11 11 12 12 13 14 14 14 15 16 17 18 18 18 19 19 20 20 21 21 21 21 22 22 23 24 24 24 24 24 23 22 22 24 25 25 24 24 24 25 24 23 22 21 20 21 22 22 23 25 25 26 32 38 39 37 37 38 41 44 47 49 50 51 52 53 54 55 56 56
4 4 4 5 5 5 5 5 6 6 6 7 8 9 9 10 11 11 11 12 12 13 13 14 14 14 15 16 17 18 18 18 19 19 20 20 21 22 22 21 22 23 24 24 24 23 23 25 24 22 23 24 24 24 23 23 23 23 23 23 22 20 19 20 21 23 24 26 29 30 32 37 40 39 39 42 44 46 49 51 52 53 55 56 57 58 58 56
4 4 4 5 5 5 6 6 6 6 7 8 8 9 10 11 11 11 12 12 13 13 13 14 15 15 15 16 16 17 18 19 19 19 19 20 21 22 22 22 22 23 24 23 24 23 22 24 23 21 22 23 22 23 22 21 21 21 21 22 22 20 19 20 22 24 24 26 32 35 35 37 39 39 41 44 46 48 51 52 54 55 57 58 60 60 58 57
4 4 4 5 5 5 6 7 6 6 7 8 9 10 10 10 12 12 12 12 13 14 13 14 16 16 16 16 16 17 18 19 20 20 20 20 21 22 23 23 22 23 23 23 24 23 21 22 21 19 21 22 21 21 21 19 21 22 21 21 21 21 20 21 24 26 27 29 34 37 38 38 38 39 42 45 48 50 51 54 56 57 59 61 61 59 57 60
4 4 5 5 5 5 6 7 6 6 8 9 10 10 10 10 12 12 12 12 13 13 13 14 15 15 15 16 16 17 18 18 19 21 20 20 22 22 22 22 21 22 23 22 22 21 19 20 19 18 20 21 20 20 20 19 21 22 21 20 21 23 23 24 26 28 29 32 34 35 37 38 37 40 44 47 50 51 52 55 58 59 61 62 59 58 59 63
4 5 5 4 5 6 7 7 7 7 9 10 10 10 11 11 11 12 12 12 12 12 13 13 14 14 15 16 16 19 19 18 19 21 20 20 22 21 21 21 20 20 20 19 19 19 18 19 19 19 20 21 19 20 21 21 20 20 20 21 23 25 26 26 27 28 30 34 36 35 36 38 39 42 47 50 52 53 54 56 58 61 62 60 57 59 63 64
4 5 5 4 5 7 7 8 8 8 9 10 10 10 11 11 11 11 12 12 12 13 13 13 13 14 16 17 17 19 19 19 20 21 20 20 20 20 20 19 18 17 17 17 17 18 17 17 19 19 20 21 21 22 23 21 19 18 19 21 25 27 28 29 29 30 31 33 35 36 37 39 42 45 50 53 55 56 56 57 61 62 60 56 58 62 63 63
Wind_Direction
161 161 162 163 165 164 164 163 161 162 161 157 155 154 156 157 150 145 147 145 142 139 133 128 124 122 125 124 119 116 105 96 83 73 72 47 6 350 342 338 340 346 351 352 353 347 347 353 347 344 341 335 330 322 322 320 318 314 310 309 302 294 292 290 287 290 303 305 297 294 293 299 304 301 302 308 308 305 304 301 300 302 301 302 306 309 310 309
165 166 168 169 172 173 172 171 170 170 170 167 163 163 165 166 162 157 157 152 147 146 136 133 139 136 140 147 147 141 129 110 86 65 53 16 356 352 342 338 338 339 340 343 344 342 342 335 333 339 333 325 321 318 316 317 321 314 308 306 296 288 291 295 288 290 308 309 298 297 297 297 301 302 302 306 308 305 304 302 300 300 300 301 305 308 308 305
168 170 172 174 177 180 182 182 181 181 185 184 178 176 179 182 178 169 169 166 159 161 156 138 144 149 150 173 193 181 158 123 84 45 16 358 354 351 341 338 332 328 332 329 328 337 340 328 332 334 326 325 321 319 320 320 318 310 310 305 293 290 298 305 295 293 307 311 305 300 299 298 300 303 303 305 308 306 301 299 299 297 297 300 304 307 306 304
174 176 179 181 183 186 189 190 191 196 201 200 195 194 198 200 192 183 182 181 180 184 182 166 139 148 155 196 218 209 186 132 85 341 343 349 350 346 341 340 329 318 321 322 325 335 338 336 338 332 325 323 319 320 322 319 312 309 312 301 297 301 309 312 303 301 309 311 306 302 303 301 300 302 303 305 309 307 299 294 294 293 297 301 304 305 305 304
182 186 191 192 190 191 194 198 205 211 210 205 203 208 215 215 204 200 200 197 201 203 196 187 166 157 169 256 230 218 205 192 243 304 336 341 344 342 339 340 330 315 314 315 321 330 332 333 334 330 326 320 319 321 318 315 313 317 314 304 304 309 314 315 310 307 310 312 310 305 305 304 305 304 299 299 304 304 301 298 295 294 298 302 303 304 305 304
193 198 202 202 198 196 198 205 214 212 207 206 210 222 228 222 213 213 218 216 217 216 211 208 196 184 213 254 215 210 193 198 243 302 331 336 341 339 336 339 328 310 316 315 318 326 327 330 330 324 321 319 319 319 315 311 312 317 314 312 312 311 314 315 312 309 308 311 308 304 305 306 307 305 300 295 294 298 301 303 301 299 298 299 301 303 304 303
205 210 211 206 200 198 202 210 210 204 203 208 220 235 234 229 227 229 230 226 225 221 217 213 206 221 241 225 171 146 157 184 251 306 330 336 338 338 337 338 336 318 317 316 317 321 322 329 329 321 324 320 312 313 318 319 324 325 314 314 318 317 317 314 311 309 309 310 307 307 308 306 303 305 307 297 292 296 299 300 301 300 300 299 300 301 302 302
213 220 216 207 201 201 205 206 201 200 205 213 230 244 239 238 237 236 233 224 219 215 211 213 221 241 242 222 203 167 150 203 262 309 330 333 335 344 340 332 338 328 321 321 315 312 316 326 322 315 325 317 307 312 319 325 331 329 315 311 318 321 318 315 313 311 312 312 310 310 307 306 304 307 307 297 294 297 298 299 299 298 300 300 299 299 300 302
218 225 215 206 203 202 204 203 201 203 211 221 237 246 239 235 229 224 219 210 206 203 206 215 230 239 228 211 194 191 222 236 266 311 330 331 334 346 347 336 338 333 329 328 322 314 312 315 307 305 312 307 312 320 320 323 322 321 317 315 319 320 317 316 315 314 314 313 312 310 308 308 308 309 306 298 298 300 299 300 299 298 298 299 299 298 299 301
217 220 207 201 201 199 200 203 203 207 216 228 241 243 232 223 215 207 200 197 201 203 208 208 212 220 212 209 191 193 233 246 276 312 333 334 333 346 352 344 340 339 336 335 333 325 316 309 306 312 320 315 320 323 322 322 319 320 324 324 325 319 315 317 315 314 314 313 313 311 310 310 311 312 307 302 305 306 303 301 299 298 297 298 299 298 298 301
213 212 202 199 199 196 198 200 203 209 220 232 241 238 222 208 200 195 192 197 204 205 206 200 200 203 191 193 180 194 234 250 276 313 336 336 343 355 356 347 344 348 345 342 338 331 330 324 317 319 320 317 322 329 330 324 322 323 325 324 324 321 316 315 316 314 315 315 313 312 311 311 314 311 302 301 306 306 304 302 300 298 297 298 299 299 299 301
209 208 204 203 202 200 200 201 206 215 228 238 238 224 208 198 192 190 194 200 203 200 200 202 214 219 196 176 178 207 239 252 265 308 335 338 351 1 2 355 353 355 347 345 338 334 338 332 332 328 317 314 317 324 327 325 325 324 325 320 319 324 318 312 316 316 316 316 315 315 313 312 313 305 300 305 308 306 304 302 301 299 299 300 299 300 300 301
208 208 207 206 207 207 209 209 215 225 232 233 224 210 203 202 197 194 199 205 205 198 195 205 220 217 196 194 214 226 243 253 257 288 323 332 340 352 2 360 357 356 350 352 345 336 335 330 341 339 322 324 319 318 323 328 327 322 325 322 318 324 318 313 318 318 317 316 317 319 315 314 311 301 301 309 308 307 304 301 301 301 301 301 300 301 301 302
209 208 208 208 209 211 214 214 220 231 233 226 217 209 205 205 203 199 202 206 206 202 203 214 223 212 194 205 225 241 248 250 255 278 308 322 327 337 350 354 355 352 349 355 351 345 346 343 349 344 331 331 322 323 329 329 328 321 321 322 321 321 315 315 319 318 317 317 319 319 313 314 314 307 307 308 305 305 303 301 302 302 302 302 301 302 303 303
212 211 208 208 210 211 212 213 219 232 238 226 217 214 210 207 204 200 204 210 209 208 211 219 223 208 199 214 231 246 252 250 264 280 298 317 325 327 333 341 346 347 346 350 348 346 346 342 344 340 331 331 329 329 327 325 325 322 319 319 320 318 314 317 319 317 318 318 320 318 313 315 315 312 311 310 305 303 301 301 302 301 302 302 302 303 304 305
217 215 211 210 213 213 212 214 220 232 235 223 216 216 212 207 205 204 210 217 215 214 211 213 217 204 204 224 237 249 255 254 267 277 288 311 321 319 321 327 334 339 341 342 341 338 339 341 341 335 328 328 329 327 325 324 322 321 320 316 316 316 316 319 321 320 320 320 319 316 314 316 316 314 314 312 307 305 302 301 301 301 301 301 303 304 305 306
225 220 215 213 216 216 215 217 225 231 227 220 217 215 210 207 210 214 220 221 215 214 208 209 215 210 217 232 239 252 256 258 270 277 285 301 317 322 323 323 326 331 334 334 335 333 334 335 329 325 328 327 324 324 325 321 316 318 320 317 315 316 317 318 319 320 322 320 318 317 314 312 312 312 312 311 308 305 302 300 300 301 301 302 303 305 306 307
233 224 220 217 218 219 219 223 231 230 221 219 219 214 209 207 208 214 223 225 220 217 213 218 223 218 234 245 243 252 256 262 273 279 285 293 309 323 329 327 321 324 327 328 332 332 330 330 327 323 325 325 323 324 320 313 312 314 316 317 318 318 317 316 317 319 321 320 317 317 314 310 310 310 308 308 306 303 300 299 299 299 300 302 304 305 306 307
238 228 223 221 222 220 221 225 228 225 222 221 219 215 214 212 210 214 222 222 217 215 217 227 227 219 234 248 248 254 257 263 274 282 289 295 302 312 323 328 325 325 325 322 328 332 328 328 328 323 319 318 317 317 315 312 313 313 314 316 316 317 317 314 315 317 319 319 317 315 313 312 312 311 309 308 305 302 300 301 301 300 301 303 305 306 307 308
238 229 223 222 220 218 220 224 222 224 225 222 218 218 217 217 218 222 225 215 208 208 212 219 219 221 236 247 252 259 259 262 276 291 296 295 298 303 312 321 324 329 327 320 321 327 329 326 320 314 311 309 309 314 319 320 319 319 319 319 315 315 316 316 316 317 319 319 317 316 315 314 313 312 311 310 308 304 302 303 302 301 303 304 305 306 307 309
236 228 224 221 218 216 219 225 224 225 225 220 218 217 216 219 221 221 219 212 210 210 213 216 217 228 238 244 255 260 257 261 278 298 303 297 297 300 307 318 323 324 323 317 316 324 330 323 313 310 309 312 313 316 322 324 323 322 320 318 318 315 314 316 319 319 320 320 318 320 320 315 314 314 314 314 312 307 304 303 303 303 305 306 306 306 308 310
233 228 224 219 216 214 214 221 223 221 222 220 218 215 219 222 219 218 215 211 215 216 218 222 224 237 243 246 259 261 261 268 280 296 305 302 302 301 306 322 323 315 319 320 319 325 326 315 311 314 316 322 323 321 323 323 322 322 320 319 319 317 315 317 320 320 321 320 319 323 322 317 316 316 316 317 314 309 307 306 306 307 308 308 307 308 310 312
229 224 219 214 214 214 216 225 224 219 221 221 217 215 218 218 214 216 217 214 220 223 225 229 229 240 251 255 263 267 268 271 276 291 304 303 301 303 307 318 318 314 321 322 317 320 319 313 315 318 320 324 324 321 322 322 320 319 319 319 317 318 319 318 319 321 320 319 319 320 319 318 320 321 319 319 316 313 311 308 309 310 309 308 309 310 311 311
226 220 216 213 213 216 219 223 217 213 215 214 210 210 212 214 215 220 221 220 227 228 227 230 231 236 247 258 269 271 267 270 277 289 302 302 294 301 306 308 313 315 317 318 315 314 313 314 319 321 323 324 320 317 317 317 318 317 315 315 316 318 318 316 318 321 320 321 321 320 320 321 325 325 321 321 321 316 314 311 310 311 310 310 311 311 310 310
223 217 215 213 214 217 216 212 209 209 210 207 207 210 211 216 223 227 225 224 232 235 231 233 238 241 246 262 274 268 265 275 282 286 296 301 293 297 303 304 307 308 307 312 315 313 312 313 317 320 322 322 317 313 312 311 316 318 315 313 315 319 319 318 320 322 322 323 323 325 324 321 325 325 320 321 323 318 316 314 311 312 313 312 311 311 312 311
219 216 215 213 213 216 214 212 215 216 212 209 210 211 212 218 226 229 228 229 238 240 236 235 240 246 253 269 276 267 271 280 282 288 295 299 295 294 299 303 308 306 302 309 312 311 313 315 316 317 318 319 317 313 310 312 317 318 316 316 319 321 320 319 320 321 321 320 322 326 323 317 323 325 320 322 324 318 316 314 310 312 314 313 312 313 314 315
210 211 211 207 207 209 207 208 212 211 208 209 209 209 214 220 227 232 233 238 241 237 237 239 242 251 258 269 274 269 275 282 285 292 296 298 298 297 298 300 304 305 303 308 310 309 312 315 316 317 318 317 315 312 309 314 317 315 316 320 320 319 318 318 319 319 318 318 321 324 322 318 321 324 323 325 324 319 317 315 311 312 314 313 313 315 316 316
199 199 197 195 198 199 199 201 204 205 207 211 211 214 218 223 232 235 224 227 239 236 238 244 243 254 265 269 275 275 277 283 285 290 295 298 299 300 300 297 296 301 304 304 304 307 311 309 307 312 316 313 310 309 310 314 315 312 314 318 319 319 318 318 319 317 317 321 320 320 323 321 320 324 327 328 325 320 318 315 311 312 314 314 315 316 317 318
187 188 189 190 192 193 198 204 207 209 213 214 215 221 225 229 234 234 220 222 238 240 240 249 248 260 275 274 278 283 283 285 285 288 295 298 299 302 301 299 299 303 306 305 301 304 310 307 305 309 311 308 308 311 311 312 313 313 314 318 321 322 321 320 320 318 319 320 316 316 324 324 321 326 331 329 325 318 315 314 312 313 315 316 317 318 319 320
184 188 191 192 192 196 203 210 215 218 218 217 221 228 231 234 231 225 227 230 238 247 248 255 258 269 284 280 281 289 287 287 290 292 294 295 299 305 302 300 304 305 305 308 305 304 309 309 308 310 309 307 311 314 313 312 314 315 316 318 320 321 321 320 318 319 321 319 314 315 321 325 324 327 330 326 322 318 316 317 316 316 317 318 319 320 320 321
187 193 193 192 193 198 203 210 218 220 220 220 226 232 234 238 230 215 229 237 243 253 255 262 271 282 290 281 281 290 292 293 297 297 296 297 300 305 304 302 305 307 307 309 307 306 310 310 308 309 309 310 313 314 315 314 315 317 317 319 319 319 320 319 318 321 320 316 314 315 320 323 321 324 328 325 321 319 316 317 318 318 318 319 321 321 321 321
182 185 186 188 192 197 200 207 217 219 222 223 226 232 230 234 236 228 238 251 251 253 256 267 278 287 293 287 283 288 290 292 299 300 296 298 299 301 303 300 301 306 307 306 307 308 308 305 307 310 309 311 312 313 316 317 317 317 318 321 321 320 321 320 317 318 316 313 315 316 319 320 317 319 323 321 319 319 317 316 316 317 318 318 320 320 320 321
180 180 178 181 188 196 200 211 221 220 224 226 229 235 225 222 231 233 243 254 253 258 264 271 280 285 289 291 288 288 288 288 297 300 295 297 300 301 302 300 301 304 304 304 307 310 309 307 310 311 310 312 312 312 314 314 316 317 317 319 320 320 321 317 315 316 314 313 315 316 318 319 320 324 323 317 317 321 321 318 316 317 318 318 319 319 320 320
178 178 180 182 181 192 207 220 225 222 226 231 234 237 231 229 233 237 249 254 256 267 271 274 285 289 289 290 289 289 290 291 297 300 299 301 301 302 303 302 305 306 305 306 306 307 308 308 310 310 309 313 313 312 313 313 315 315 314 316 316 315 314 312 312 313 313 314 314 314 316 318 322 327 325 317 318 323 324 322 321 321 321 319 319 319 319 320
182 183 189 195 198 211 226 232 232 230 231 234 239 235 230 236 241 244 251 256 263 272 274 278 287 292 292 292 292 292 291 292 298 301 301 301 299 300 302 302 304 306 306 305 305 306 306 305 308 310 310 313 313 311 314 316 315 313 313 315 313 311 310 310 309 309 312 315 314 312 312 314 320 324 323 320 322 326 326 325 325 324 322 321 319 319 319 319
194 199 202 209 220 236 249 248 242 237 231 230 239 239 235 242 247 246 251 261 269 274 280 287 290 291 292 292 294 297 295 293 299 302 300 299 300 301 302 302 304 306 306 304 303 307 308 306 309 311 311 313 312 310 313 314 312 312 313 312 310 311 312 311 309 312 315 313 313 313 312 316 323 322 320 323 325 325 325 324 324 322 322 321 320 319 319 319
204 207 212 222 234 248 256 253 242 234 230 227 237 243 245 250 253 253 259 270 274 277 286 292 289 287 289 290 292 296 298 297 300 303 301 301 303 301 302 305 305 305 306 305 303 305 306 305 307 310 310 311 311 311 314 314 312 312 310 309 311 314 314 313 312 315 317 311 311 314 312 318 324 319 319 325 325 324 323 323 323 322 322 322 320 320 320 319
209 214 221 229 240 252 255 250 237 229 234 242 250 254 252 257 263 263 264 271 276 282 287 286 285 286 287 289 291 294 297 298 300 303 302 302 303 302 303 306 306 306 306 307 306 306 307 306 308 310 309 311 312 312 313 314 314 312 309 310 314 312 311 313 312 314 315 312 313 314 314 319 320 314 319 324 324 324 324 323 323 323 324 323 321 321 320 320
212 222 229 234 245 257 254 246 237 234 246 252 255 259 258 263 269 267 267 273 279 284 285 282 286 289 287 286 290 293 296 297 299 302 302 302 303 304 305 305 305 306 307 308 307 306 307 307 307 308 309 311 312 311 309 312 314 314 312 313 314 310 307 309 310 310 312 312 314 316 319 323 319 314 318 321 322 324 323 323 324 323 323 323 322 321 321 321
220 228 235 244 260 264 252 244 242 247 257 254 252 257 264 268 270 270 273 278 282 286 285 284 287 290 288 289 291 295 298 297 298 301 301 302 304 306 306 306 306 306 307 309 308 307 308 305 304 307 310 310 310 310 308 309 311 312 312 312 312 310 309 309 309 308 309 310 313 315 316 320 319 315 317 320 322 322 322 323 323 323 323 323 323 322 322 321
226 234 243 256 269 262 247 251 262 260 259 258 260 265 270 272 274 278 281 283 286 288 287 286 286 288 290 293 295 296 298 299 299 301 301 302 304 305 306 307 307 306 307 309 308 307 307 304 303 307 309 308 309 310 310 308 308 309 310 309 309 309 310 310 310 309 308 307 309 310 310 314 317 316 317 321 321 321 323 324 323 323 323 323 323 323 322 322
229 239 250 264 269 255 245 263 272 267 262 266 271 274 277 280 282 284 286 287 290 291 292 292 290 290 292 295 297 297 298 300 300 301 301 301 302 304 306 308 307 306 308 308 306 306 306 306 306 305 306 308 311 314 313 311 311 313 312 311 310 311 310 308 308 309 309 308 308 309 308 312 317 317 319 321 321 322 324 324 323 323 323 322 322 322 322 322
235 241 252 268 264 248 251 273 279 281 276 275 279 281 283 286 288 290 290 290 292 294 295 295 293 294 295 297 299 299 298 299 299 300 302 302 304 306 307 308 308 307 309 308 307 307 307 308 308 306 308 312 314 315 315 314 315 315 313 312 311 311 311 308 305 307 307 306 308 309 308 312 317 319 321 322 323 323 323 324 324 323 322 322 322 322 322 321
239 242 252 266 262 250 256 267 274 282 283 286 291 290 289 289 290 292 293 292 294 295 296 297 296 297 299 300 301 299 299 301 300 302 304 303 305 308 310 309 308 309 309 307 307 308 306 307 309 310 312 315 316 317 315 313 314 312 311 312 311 312 314 312 309 310 308 305 305 305 306 311 317 320 322 322 322 322 323 324 324 323 322 322 322 322 322 321
241 249 256 267 270 263 265 266 266 277 284 292 297 296 295 296 294 294 294 295 295 295 298 300 299 300 302 302 302 301 301 302 302 305 308 306 305 309 311 310 308 308 308 307 307 307 306 306 309 310 311 312 313 313 312 312 313 313 313 312 311 311 312 311 311 311 309 306 306 304 305 310 316 320 320 321 321 322 323 323 323 322 322 322 322 322 321 321
244 255 264 274 278 275 277 281 282 285 286 291 297 298 298 298 297 298 297 297 299 299 301 302 302 303 304 303 303 303 302 304 305 307 308 306 306 309 310 310 309 309 309 309 309 309 308 308 308 306 304 305 307 309 311 314 313 312 312 312 311 312 313 314 313 309 308 308 307 305 305 309 315 319 320 320 321 322 322 322 322 323 323 322 322 321 321 321
249 254 265 274 281 284 291 295 298 297 292 290 294 297 298 299 302 304 301 301 303 303 303 304 303 303 303 303 304 304 305 307 308 307 307 306 306 309 310 310 311 310 310 309 310 311 310 309 308 306 303 305 309 310 313 315 312 311 313 312 312 314 315 315 310 307 312 313 309 310 310 310 314 319 319 320 321 321 322 322 323 323 323 323 322 321 321 321
256 256 267 274 277 283 292 297 299 302 301 298 299 300 302 303 304 303 302 305 306 304 304 305 303 300 299 302 306 307 307 309 308 307 308 309 309 311 312 311 311 310 311 310 310 311 311 309 310 311 309 310 312 312 312 313 313 313 313 311 312 315 314 312 308 308 312 310 308 312 314 312 314 317 318 319 321 321 321 322 322 322 323 322 321 321 321 321
265 265 276 282 282 282 289 295 296 301 306 305 303 301 301 300 300 300 303 308 309 305 303 304 304 303 302 304 308 308 307 310 310 308 309 310 310 311 312 311 310 311 313 313 313 313 311 310 313 316 315 315 314 314 314 315 316 316 312 310 313 314 311 310 310 312 312 308 308 312 313 313 314 315 316 319 321 321 321 321 322 322 322 322 321 322 322 321
270 270 277 287 292 293 298 300 299 303 306 305 302 301 300 297 298 302 305 305 306 306 305 303 304 307 307 307 308 306 305 307 309 308 309 311 311 310 310 310 311 314 315 315 315 317 315 313 316 320 319 318 320 322 321 316 314 314 312 314 318 318 316 315 315 316 316 313 312 313 313 314 315 316 317 320 321 321 322 322 322 322 322 321 322 322 322 322
274 276 280 285 292 297 300 301 302 304 304 303 300 301 302 299 297 303 306 304 304 306 304 303 307 311 313 312 308 305 305 308 309 309 309 310 311 311 312 312 313 315 317 317 318 320 318 316 320 324 321 318 321 324 321 317 315 314 315 320 323 321 320 319 318 318 317 316 316 316 316 316 318 319 319 320 321 322 322 322 323 323 322 321 322 323 323 323
279 284 287 290 295 297 298 302 306 306 302 300 299 301 304 304 303 307 310 308 308 308 306 305 309 313 314 312 309 308 310 311 311 312 312 313 314 315 315 316 317 318 318 319 321 322 322 320 321 322 318 316 319 321 320 321 321 317 317 323 323 321 319 318 319 318 317 317 318 318 317 317 319 320 321 321 322 323 323 324 324 322 321 322 324 324 324 324